Home > Weather > Hayward > Past weeks

Flag for USA Past Weather in Hayward, California, USA — Yesterday and Last 2 Weeks

Now
58 °F

Clear.


Feels Like: 57 °F
Forecast: 59 / 78 °F
Wind: 7 mph from Northwest

Location: Hayward Air Terminal

Current Time: Jul 31, 2016 at 12:36:49 AM

Latest Report: Jul 30, 2016 at 11:54 PM


Visibility: 10 mi

Pressure: 29.88 "Hg

Humidity: 78%

Dew Point: 51 °F

Location of HaywardLocation

Past Weather in Hayward — Graph

°F

Hayward Temperature Yesterday

Maximum temperature yesterday: 76 °F (at 2:54 PM)
Minimum temperature yesterday: 57 °F (at 3:54 AM)
Average temperature yesterday: 65 °F

High & Low Weather Summary for the Past Weeks

 TemperatureHumidityPressure
High89 °F (Jul 26, 2:54 PM)83% (Jul 30, 3:54 AM)30.15 "Hg (Jul 30, 3:54 AM)
Low56 °F (Jul 28, 5:54 AM)22% (Jul 26, 5:54 PM)29.80 "Hg (Jul 29, 5:54 PM)
Average65 °F63%29.97 "Hg
* Reported Jul 15 10:54 PM — Jul 30 10:54 PM, Hayward, Weather by CustomWeather, © 2016

Note: Actual official high and low records may vary slightly from our data, if they occured in-between our weather recording intervals... More about our weather records

Advertising

Hayward Weather History for the Previous 24 Hours

Scroll right to see more
 ConditionsComfort  
Time TempWeatherWind HumidityBarometerVisibility
10:54 PM
Sat, Jul 30
59 °FClear.7 mph75%29.87 "Hg10 mi
9:54 PM60 °FClear.7 mph72%29.86 "Hg10 mi
8:54 PM62 °FSunny.10 mph67%29.84 "Hg10 mi
7:54 PM66 °FSunny.9 mph61%29.82 "Hg10 mi
6:54 PM69 °FSunny.12 mph55%29.83 "Hg10 mi
5:54 PM72 °FSunny.13 mph49%29.83 "Hg10 mi
4:54 PM74 °FSunny.15 mph46%29.83 "Hg10 mi
3:54 PM75 °FSunny.15 mph45%29.84 "Hg10 mi
2:54 PM76 °FSunny.14 mph43%29.85 "Hg10 mi
1:54 PM75 °FSunny.14 mph47%29.85 "Hg10 mi
12:54 PM73 °FSunny.10 mph50%29.86 "Hg10 mi
11:54 AM71 °FSunny.14 mph53%29.87 "Hg10 mi
10:54 AM66 °FSunny.9 mph63%29.87 "Hg10 mi
9:54 AM65 °FSunny.N/A66%29.86 "Hg10 mi
8:54 AM61 °FPartly sunny.No wind75%29.86 "Hg9 mi
7:54 AM59 °FLow clouds.3 mph78%29.84 "Hg10 mi
6:54 AM58 °FLow clouds.5 mph81%29.83 "Hg10 mi
5:54 AM58 °FLow clouds.6 mph81%29.82 "Hg10 mi
4:54 AM57 °FLow clouds.6 mph83%29.81 "Hg10 mi
3:54 AM57 °FLow clouds.8 mph83%29.81 "Hg10 mi
2:54 AM58 °FClear.6 mph78%29.82 "Hg10 mi
1:54 AM59 °FClear.6 mph78%29.83 "Hg10 mi
12:54 AM59 °FClear.3 mph78%29.83 "Hg10 mi
Weather by CustomWeather, © 2016

See weather overviewHow to use our weather pages